Gainesville, GA

11:25 PM EST on February 18, 2019 (GMT -0500)
Gilmer Memorial

Weather History for KGVL - February, 2019

Change the Weather History Date:

Tuesday, February 12, 2019

  Actual Average Record
Temperature  
Mean Temperature 51 °F 45 °F  
Max Temperature 56 °F 54 °F 75 °F (1938)
Min Temperature 45 °F 36 °F 9 °F (1981)
Degree Days  
Heating Degree Days 14 20  
Month to date heating degree days 161 254  
Since 1 July heating degree days 2086 2172  
Growing Degree Days 2 (Base 50)    
Moisture  
Dew Point 51 °F    
Average Humidity 83    
Maximum Humidity 100    
Minimum Humidity 66    
Precipitation  
Precipitation 0.82 in 0.17 in 1.30 in (1948)
Month to date precipitation 1.44 1.90  
Year to date precipitation 6.73 6.93  
Snow  
Snow 0.00 in - - ()
Month to date snowfall 0.0  
Since 1 July snowfall 0.0  
Snow Depth 0.00 in    
Sea Level Pressure  
Sea Level Pressure 29.94 in    
Wind  
Wind Speed 10 mph (South)    
Max Wind Speed 23 mph    
Max Gust Speed 32 mph    
Visibility 4 miles    
Events Fog , Rain    
T = Trace of Precipitation, MM = Missing Value Source: NWS Daily Summary

Daily Weather History Graph

Daily Weather History Graph

Search for Another Location

Airport or City:

Astronomy

Feb. 12, 2019 Rise Set
Actual Time 7:23 AM EST 6:15 PM EST
Civil Twilight 6:57 AM EST 6:41 PM EST
Nautical Twilight 6:28 AM EST 7:11 PM EST
Astronomical Twilight 5:59 AM EST 7:40 PM EST
Moon 11:47 AM EST (2/12) 12:34 AM EST (2/12)
Length of Visible Light 11h 44m
Length of Day
10h 52m
Waxing Crescent, 48% of the Moon is Illuminated
Feb 12
Waxing Crescent
Feb 12
First Quarter
Feb 19
Full
Feb 26
Last Quarter
Mar 6
New

Hourly Weather History & Observations

Time (EST) Temp. Windchill Dew Point Humidity Pressure Visibility Wind Dir Wind Speed Gust Speed Precip Events Conditions
12:53 AM 48.0 °F - 48.0 °F 100% 30.04 in 1.2 mi ENE 4.6 mph - 0.07 in Rain Heavy Rain
1:01 AM 48.0 °F - 48.0 °F 100% 30.05 in 2.0 mi East 5.8 mph - 0.02 in Rain Rain
1:07 AM 48.0 °F - 48.0 °F 100% 30.05 in 3.0 mi East 5.8 mph - 0.02 in Rain Light Rain
1:53 AM 48.0 °F - 48.0 °F 100% 30.03 in 3.0 mi ENE 8.1 mph - 0.05 in Rain Light Rain
2:32 AM 48.0 °F - 48.0 °F 100% 30.03 in 2.5 mi East 6.9 mph - 0.00 in Rain Light Rain
2:40 AM 48.0 °F - 48.0 °F 100% 30.03 in 1.8 mi East 6.9 mph - 0.00 in   Overcast
2:48 AM 48.2 °F - 48.2 °F 100% 30.02 in 1.0 mi ESE 4.6 mph - 0.01 in   Mist
2:53 AM 48.9 °F - 48.9 °F 100% 30.01 in 1.0 mi ESE 6.9 mph - 0.01 in   Mist
3:02 AM 48.9 °F - 48.9 °F 100% 30.02 in 0.5 mi SE 6.9 mph - N/A Fog Fog
3:53 AM 48.9 °F - 48.9 °F 100% 30.00 in 0.5 mi East 5.8 mph - N/A Fog Fog
4:53 AM 48.9 °F - 48.9 °F 100% 29.99 in 0.2 mi East 6.9 mph - N/A Fog Fog
5:53 AM 50.0 °F - 50.0 °F 100% 29.96 in 0.5 mi East 5.8 mph - 0.01 in Fog Fog
6:29 AM 50.0 °F - 50.0 °F 100% 29.97 in 1.2 mi ESE 8.1 mph - 0.16 in Rain Heavy Rain
6:34 AM 50.0 °F - 50.0 °F 100% 29.97 in 2.0 mi ESE 9.2 mph - 0.17 in Rain Light Rain
6:37 AM 50.0 °F - 50.0 °F 100% 29.97 in 3.0 mi SE 8.1 mph - 0.17 in Rain Light Rain
6:53 AM 48.9 °F - 48.9 °F 100% 29.97 in 4.0 mi SSE 6.9 mph - 0.17 in   Overcast
7:00 AM 48.9 °F - 48.9 °F 100% 29.97 in 2.0 mi ESE 10.4 mph - N/A   Overcast
7:04 AM 50.0 °F - 50.0 °F 100% 29.98 in 1.5 mi SW 8.1 mph - N/A   Overcast
7:36 AM 50.0 °F - 50.0 °F 100% 29.97 in 1.0 mi SE 4.6 mph - N/A   Mist
7:53 AM 50.0 °F - 50.0 °F 100% 29.96 in 0.5 mi ESE 8.1 mph - N/A Fog Fog
8:53 AM 50.0 °F - 50.0 °F 100% 29.95 in 0.2 mi ESE 6.9 mph - N/A Fog Fog
9:53 AM 51.1 °F - 51.1 °F 100% 29.94 in 0.2 mi ESE 5.8 mph - N/A Fog Fog
10:53 AM 52.0 °F - 52.0 °F 100% 29.93 in 0.2 mi ESE 6.9 mph - N/A Fog Fog
11:53 AM 53.1 °F - 53.1 °F 100% 29.91 in 0.2 mi ESE 8.1 mph - 0.00 in Fog Fog
12:53 PM 54.0 °F - 54.0 °F 100% 29.84 in 0.2 mi ESE 8.1 mph - N/A Fog Fog
1:42 PM 54.0 °F - 54.0 °F 100% 29.88 in 0.2 mi WNW 18.4 mph 32.2 mph 0.18 in Fog , Rain Heavy Rain
1:46 PM 54.0 °F - 54.0 °F 100% 29.87 in 0.5 mi WNW 13.8 mph 32.2 mph 0.26 in Fog , Rain Heavy Rain
1:53 PM 54.0 °F - 54.0 °F 100% 29.85 in 1.0 mi West 6.9 mph 19.6 mph 0.31 in Rain Heavy Rain
1:57 PM 54.0 °F - 54.0 °F 100% 29.87 in 1.8 mi West 12.7 mph - 0.02 in Rain Rain
1:59 PM 54.0 °F - 54.0 °F 100% 29.87 in 2.0 mi West 10.4 mph - 0.02 in Rain Rain
2:02 PM 54.0 °F - 54.0 °F 100% 29.87 in 3.0 mi West 13.8 mph 18.4 mph 0.03 in Rain Rain
2:20 PM 54.0 °F - 54.0 °F 100% 29.85 in 2.5 mi WNW 9.2 mph - 0.08 in Rain Rain
2:27 PM 55.0 °F - 55.0 °F 100% 29.86 in 5.0 mi WNW 10.4 mph - 0.09 in Rain Light Rain
2:53 PM 55.9 °F - 55.0 °F 97% 29.85 in 9.0 mi West 18.4 mph 21.9 mph 0.12 in Rain Light Rain
3:53 PM 55.0 °F - 54.0 °F 96% 29.86 in 10.0 mi West 9.2 mph - 0.06 in Rain Light Rain
4:53 PM 55.0 °F - 55.0 °F 100% 29.87 in 10.0 mi SW 8.1 mph - 0.00 in Rain Light Rain
5:53 PM 55.0 °F - 55.0 °F 100% 29.89 in 10.0 mi WSW 12.7 mph - 0.01 in Rain Light Rain
6:12 PM 55.0 °F - 55.0 °F 100% 29.90 in 9.0 mi WNW 10.4 mph - 0.01 in Rain Light Rain
6:17 PM 54.0 °F - 54.0 °F 100% 29.90 in 7.0 mi West 9.2 mph - 0.01 in Rain Light Rain
6:33 PM 54.0 °F - 54.0 °F 100% 29.90 in 10.0 mi WSW 16.1 mph 21.9 mph 0.01 in Rain Light Rain
6:53 PM 55.0 °F - 54.0 °F 96% 29.89 in 10.0 mi West 15.0 mph 21.9 mph 0.01 in Rain Light Rain
7:00 PM 55.0 °F - 54.0 °F 96% 29.91 in 10.0 mi West 16.1 mph 24.2 mph 0.00 in Rain Light Rain
7:36 PM 54.0 °F - 54.0 °F 100% 29.91 in 10.0 mi West 12.7 mph 20.7 mph 0.00 in   Overcast
7:53 PM 54.0 °F - 53.1 °F 97% 29.91 in 10.0 mi West 16.1 mph 23.0 mph 0.00 in   Mostly Cloudy
8:53 PM 53.1 °F - 51.1 °F 93% 29.91 in 10.0 mi West 12.7 mph 19.6 mph N/A   Partly Cloudy
9:53 PM 52.0 °F - 45.0 °F 77% 29.94 in 10.0 mi WNW 19.6 mph 28.8 mph N/A   Clear
10:53 PM 48.0 °F - 37.9 °F 68% 29.98 in 10.0 mi WNW 17.3 mph - N/A   Clear
11:53 PM 45.0 °F 38.5 °F 36.0 °F 71% 29.99 in 10.0 mi NW 13.8 mph - N/A   Clear